Location: Burera
(21.3780°N, 81.9534°E)
Time: 00:30:16
(UTC+00:00)

USA 267 - Pass Details

Date: 13 August 2020
Orbit: 1102 x 1106 km, 123.0° (Epoch: 18 September)

Event Time Altitude Azimuth Distance (km) Brightness Sun altitude
Rises 14:16:14 0° 37° (NE) 3,917 6.0 -16.7°
Reaches altitude 10° 14:18:42 10° 36° (NE) 2,959 5.4 -17.3°
Maximum altitude 14:25:15 84° 310° (NW) 1,111 3.3 -18.6°
Drops below altitude 10° 14:31:47 10° 222° (SW) 2,955 5.7 -20.0°
Sets 14:34:16 0° 221° (SW) 3,911 6.4 -20.6°
